Flag for U.S.A. Weather past 2 weeks in Antioch, California, U.S.A.

Now
68 °F

Clear.


Feels Like: 68 °F
Forecast: 61 / 94 °F
Wind: 9 mph from South

Location: Buchanan Field

Current Time: Jul 24, 2014 at 12:12:07 AM

Latest Report: Jul 23, 2014 at 10:53 PM


Visibility: 10 mi

Pressure: 29.98 "Hg

Humidity: 68%

Dew point: 57 °F

Location of AntiochLocation

Historic Weather in Antioch — Graph

°F

Antioch temperature yesterday

Maximum temperature yesterday: 81 °F (at 3:53 PM)
Minimum temperature yesterday: 65 °F (at 12:53 AM)
Average temperature yesterday: 71 °F

Past Weeks' High & Low Weather Summary

 TemperatureHumidityPressure
High97 °F (Jul 14, 3:53 PM)90% (Jul 9, 5:53 AM)30.10 "Hg (Jul 9, 5:53 AM)
Low56 °F (Jul 13, 4:53 AM)20% (Jul 14, 3:53 PM)29.78 "Hg (Jul 14, 3:53 PM)
Average68 °F67%29.93 "Hg
* Reported Jul 8 10:53 PM — Jul 23 10:53 PM, Antioch, Weather by CustomWeather, © 2014

Note: Actual official high and low records may vary slightly from our data, if they occured in-between our weather recording intervals... More about our weather records

Advertising

Antioch weather history for previous 24 hours

 ConditionsComfort  
Time TempWeatherWind HumidityBarometerVisibility
10:53 PM
Jul 23
68 °FClear.9 mph68%29.98 "Hg10 mi
9:53 PM69 °FClear.8 mph66%29.98 "Hg10 mi
8:53 PM70 °FSunny.6 mph66%29.98 "Hg10 mi
7:53 PM72 °FSunny.8 mph61%29.98 "Hg10 mi
6:53 PM75 °FSunny.12 mph55%29.99 "Hg10 mi
5:53 PM79 °FSunny.15 mph48%29.99 "Hg10 mi
4:53 PM80 °FSunny.10 mph45%30.01 "Hg10 mi
3:53 PM81 °FSunny.12 mph44%30.01 "Hg10 mi
2:53 PM80 °FSunny.9 mph45%30.04 "Hg10 mi
1:53 PM78 °FSunny.N/A48%30.06 "Hg10 mi
12:53 PM78 °FScattered clouds.12 mph48%30.07 "Hg10 mi
11:53 AM75 °FPartly sunny.9 mph55%30.09 "Hg10 mi
10:53 AM74 °FOvercast.13 mph56%30.10 "Hg10 mi
9:53 AM70 °FBroken clouds.12 mph64%30.09 "Hg10 mi
8:53 AM70 °FPartly sunny.10 mph64%30.09 "Hg10 mi
7:53 AM67 °FPartly sunny.5 mph71%30.08 "Hg10 mi
6:53 AM66 °FOvercast.5 mph75%30.08 "Hg10 mi
5:53 AM65 °FOvercast.6 mph78%30.07 "Hg10 mi
4:53 AM65 °FOvercast.6 mph78%30.06 "Hg10 mi
3:53 AM65 °FOvercast.6 mph78%30.06 "Hg10 mi
2:53 AM65 °FOvercast.7 mph78%30.06 "Hg10 mi
1:53 AM65 °FOvercast.9 mph78%30.06 "Hg10 mi
12:53 AM65 °FOvercast.12 mph76%30.06 "Hg10 mi
Weather by CustomWeather, © 2014

See weather overviewHow to use our weather pages